ボク彗星

C/2022 U3 ( Bok )

English version
Home page
Updated on November 14, 2024

---------------------------------------------------------------------

・ プロフィール

発見日 2022年10月31日
発見光度 19.6等
発見者 Hannes Groeller and Cassandra Lejoly (Bok NEO Survey)

・ 写真集

・ 軌道要素

Epoch 2024 Mar. 31.0 TT = JDT 2460400.5
T 2024 July 28.29918 TT                                 Rudenko
q   4.8265079            (2000.0)            P               Q
z  -0.0005514      Peri.  189.07972     -0.17918315     -0.81338870
 +/-0.0000019      Node   272.78442     +0.93384283     +0.03638999
e   1.0026614      Incl.   33.64812     +0.30956578     -0.58058126
>From 640 observations 2021 June 23-2024 Mar. 18, mean residual 0".5.

・ 光度変化

        m1 = 0.0 + 5 logΔ + 20.0 log r(t + 250)

---------------------------------------------------------------------

軌道要素はM.P.E.C. 2024-F34に掲載されたものです。
光度グラフはComet for Windowsで作成したものです。

---------------------------------------------------------------------

Copyright(C) Seiichi Yoshida (comet@aerith.net). All rights reserved.